Powrót do katalogu

CZ-4C DEB

AktywnyPO
NORAD 44614·DEBRIS·🇨🇳 China

Wystrzelony Nov 14, 2017 z Taiyuan Satellite Launch Center

Loading…

Następne Przeloty (najbliższe 24 godziny)

TLE

ŚwieżeSource: Space-Track

Epoka: Sep 14, 2026, 16:30 UTC

1 44614U 17072E   26257.68812257  .00000301  00000-0  26384-3 0  9997
2 44614  98.7281 340.7128 0228989 148.7004 212.8018 13.80960584443796

Śledź CZ-4C DEB w czasie rzeczywistym z AllMySat

Download on the App Store